Temp
15 16 16 17 17 19 18 19 19 18 14 15 16 18 19 15 14 17 16 15 13 11 9 8 9 8 8 7 7 7 7 7 7 7 7 7 7 8 8 8 8 8 8 8
14 14 18 18 18 17 16 17 17 15 13 14 17 16 18 18 16 16 16 16 14 12 11 9 9 8 7 7 7 6 7 7 7 7 7 6 7 7 7 8 8 8 8 8
16 16 16 15 15 14 15 16 16 16 13 13 13 16 18 15 13 11 10 12 13 13 11 10 9 8 7 7 7 6 7 7 7 6 7 7 7 7 7 7 7 7 8 8
15 16 13 14 15 15 15 16 16 14 14 14 13 15 20 16 12 12 11 10 10 11 12 10 9 8 7 7 7 6 6 7 7 6 6 6 6 6 6 7 7 7 7 7
14 12 12 13 14 15 15 13 14 14 14 13 13 11 18 15 13 12 11 9 8 8 9 11 9 8 8 7 7 6 5 7 7 6 6 6 5 4 6 6 6 6 7 7
12 9 10 12 9 11 11 12 12 13 13 10 12 14 17 15 15 14 10 8 6 7 8 10 9 8 7 6 6 6 5 6 6 6 6 6 5 5 6 6 6 6 6 6
10 10 8 9 10 10 11 12 11 11 10 12 9 10 16 11 10 13 10 7 6 6 7 8 7 7 6 5 5 5 5 6 6 6 6 5 5 5 5 5 5 5 6 6
12 11 9 9 10 10 10 11 13 12 13 15 9 10 14 10 7 6 6 6 6 6 6 6 5 5 5 4 5 6 6 6 6 6 6 5 5 5 5 5 5 5 5 5
13 13 7 7 8 9 11 9 11 9 8 11 13 13 8 7 6 6 6 5 5 5 5 4 4 4 4 4 5 5 6 5 6 6 5 5 5 5 4 4 4 4 4 4
13 10 7 5 7 7 8 9 10 9 10 12 15 14 15 6 7 7 6 5 4 4 3 3 3 4 4 3 4 4 5 5 5 5 5 5 5 4 4 4 4 4 4 4
10 11 6 7 7 8 7 7 7 9 11 12 14 14 8 9 8 7 7 5 4 3 2 2 2 2 3 3 4 5 5 5 5 5 4 4 4 4 4 4 4 4 3 3
9 10 8 9 2 2 4 8 8 11 9 8 8 11 6 5 6 6 6 4 3 2 1 1 1 2 2 3 4 4 4 4 4 4 4 4 4 4 4 4 3 3 3 3
5 9 9 7 5 3 4 4 4 5 7 8 10 11 4 3 3 3 2 2 1 1 0 0 0 1 1 2 3 3 4 4 4 4 4 3 3 3 3 3 3 3 3 3
7 9 10 12 10 6 4 4 3 6 8 10 9 6 3 3 3 2 2 1 0 -1 -0 -0 -0 -0 1 2 3 3 3 3 3 3 3 3 3 3 3 3 2 2 2 2
7 7 9 7 6 5 5 5 3 4 7 9 8 7 5 3 2 1 1 -1 -2 -2 -1 -1 -1 0 1 2 2 2 2 2 2 2 2 2 2 2 2 1 1 1 1 1
5 6 5 5 3 2 4 4 4 4 5 3 2 4 1 1 1 -1 -2 -3 -3 -3 -1 -1 -0 0 1 1 1 1 2 2 2 2 1 1 1 1 1 1 1 1 0 0
4 4 4 8 3 3 4 2 3 4 3 5 3 5 -1 -1 0 -1 -2 -3 -2 -2 -2 -1 -1 -1 -0 0 1 1 1 1 1 1 1 1 1 1 1 1 0 0 -0 -0
3 4 4 6 3 6 5 -1 -0 4 3 2 1 0 -0 -1 -1 -2 -2 -3 -3 -3 -3 -3 -1 -1 -0 -0 0 0 0 0 0 0 0 0 0 0 0 0 0 -0 -0 -1
3 5 3 5 5 9 5 -0 -0 2 4 1 1 -2 -3 -5 -4 -5 -3 -3 -3 -4 -3 -2 -2 -2 -1 -1 -1 -1 -1 -1 -1 -1 -1 -1 -1 -1 -1 -1 -1 -1 -1 -1
1 3 5 2 6 7 6 2 0 0 6 0 -1 -2 -4 -3 1 -0 -6 -4 -4 -4 -3 -3 -3 -3 -2 -2 -2 -2 -2 -2 -1 -1 -1 -1 -2 -2 -2 -2 -2 -2 -2 -2
2 3 3 5 5 7 2 -0 -1 5 5 -1 -2 -3 -5 -1 -3 -5 -7 -6 -5 -5 -4 -4 -4 -3 -3 -3 -3 -3 -2 -2 -2 -2 -2 -2 -3 -3 -3 -3 -3 -3 -3 -3
2 3 3 5 3 4 0 -1 3 -1 -2 -3 -3 -4 -5 -8 -9 -9 -7 -6 -6 -5 -5 -5 -5 -4 -4 -4 -3 -3 -3 -3 -3 -3 -3 -3 -3 -3 -3 -4 -4 -4 -4 -4
2 3 4 4 4 -1 -4 -4 -5 -4 -3 -3 -4 -6 -6 -9 -10 -9 -8 -7 -7 -7 -6 -6 -6 -5 -5 -5 -5 -5 -5 -5 -5 -5 -5 -5 -5 -4 -4 -5 -5 -4 -4 -5
-1 -2 2 1 -2 -4 -5 -6 -6 -5 -6 -7 -7 -7 -8 -9 -10 -9 -8 -8 -8 -8 -7 -7 -7 -7 -7 -7 -7 -7 -7 -7 -7 -7 -7 -6 -6 -6 -6 -6 -6 -6 -6 -6
-2 -2 1 -0 -6 -7 -7 -7 -8 -9 -9 -8 -8 -8 -9 -9 -11 -9 -9 -9 -9 -9 -9 -9 -9 -9 -9 -9 -9 -9 -9 -9 -8 -8 -8 -8 -8 -8 -7 -7 -7 -8 -8 -9
-9 -8 -1 -1 -9 -7 -7 -9 -10 -10 -11 -11 -10 -10 -11 -10 -9 -9 -9 -10 -10 -10 -11 -11 -11 -11 -11 -11 -11 -10 -10 -10 -10 -10 -9 -9 -9 -9 -9 -9 -8 -9 -11 -11
Height
1483 1481 1476 1476 1478 1474 1478 1472 1475 1478 1489 1490 1488 1483 1481 1489 1491 1491 1494 1498 1502 1506 1510 1514 1521 1525 1527 1531 1533 1536 1539 1542 1545 1548 1550 1552 1554 1556 1558 1560 1562 1563 1565 1567
1483 1475 1469 1471 1472 1476 1480 1479 1479 1488 1492 1493 1484 1483 1480 1482 1487 1489 1491 1494 1500 1504 1508 1512 1517 1521 1524 1528 1531 1534 1538 1541 1545 1548 1550 1551 1553 1555 1557 1559 1561 1563 1566 1568
1469 1467 1469 1471 1476 1480 1479 1479 1479 1482 1490 1492 1492 1481 1475 1483 1486 1490 1492 1493 1496 1501 1505 1508 1513 1517 1521 1525 1529 1532 1536 1540 1543 1546 1549 1551 1553 1555 1557 1559 1561 1563 1565 1568
1467 1466 1471 1473 1471 1475 1478 1474 1478 1486 1489 1491 1488 1483 1458 1473 1483 1487 1489 1492 1495 1498 1502 1505 1510 1514 1519 1522 1527 1530 1534 1538 1541 1545 1548 1550 1552 1554 1556 1558 1560 1563 1565 1567
1464 1468 1470 1470 1468 1471 1472 1480 1482 1484 1486 1491 1488 1497 1461 1471 1478 1481 1486 1491 1493 1495 1497 1501 1506 1511 1516 1520 1523 1527 1532 1536 1540 1544 1547 1549 1552 1553 1555 1557 1559 1561 1564 1566
1465 1472 1473 1470 1477 1477 1481 1483 1487 1487 1488 1498 1484 1483 1459 1467 1466 1474 1486 1489 1491 1491 1493 1498 1504 1509 1514 1517 1521 1524 1528 1533 1538 1542 1545 1548 1551 1552 1554 1556 1558 1560 1562 1565
1469 1471 1475 1474 1477 1481 1480 1479 1490 1496 1498 1482 1490 1490 1460 1470 1474 1474 1483 1487 1489 1489 1492 1497 1501 1505 1510 1513 1517 1521 1526 1531 1535 1539 1543 1546 1549 1551 1553 1554 1556 1558 1560 1563
1459 1467 1469 1470 1469 1470 1474 1474 1470 1478 1474 1463 1492 1480 1456 1472 1479 1482 1485 1487 1488 1490 1492 1496 1500 1503 1507 1510 1514 1518 1523 1528 1532 1537 1541 1544 1547 1549 1551 1552 1554 1556 1558 1560
1449 1452 1471 1472 1473 1471 1472 1477 1471 1483 1487 1477 1462 1461 1474 1477 1480 1482 1484 1487 1488 1490 1493 1496 1499 1502 1505 1509 1512 1517 1522 1526 1530 1534 1537 1540 1543 1546 1548 1550 1552 1553 1555 1557
1443 1457 1470 1475 1475 1475 1473 1473 1476 1481 1478 1471 1447 1451 1440 1471 1473 1477 1483 1485 1489 1491 1494 1496 1498 1501 1505 1507 1511 1515 1520 1524 1527 1531 1534 1537 1540 1543 1546 1547 1549 1551 1553 1555
1445 1447 1473 1474 1470 1465 1475 1475 1474 1469 1466 1456 1446 1445 1458 1455 1463 1471 1478 1484 1487 1491 1494 1495 1497 1500 1503 1506 1510 1514 1518 1521 1525 1528 1531 1534 1537 1540 1542 1545 1547 1548 1550 1552
1445 1446 1459 1457 1474 1476 1472 1462 1464 1453 1466 1467 1467 1448 1462 1461 1464 1471 1477 1483 1488 1491 1493 1495 1497 1500 1503 1506 1510 1513 1517 1520 1523 1526 1529 1532 1534 1537 1539 1542 1543 1545 1547 1548
1445 1445 1452 1459 1471 1474 1470 1466 1469 1468 1463 1462 1455 1445 1466 1467 1468 1472 1477 1483 1487 1490 1493 1495 1498 1500 1502 1506 1509 1512 1515 1518 1521 1524 1526 1529 1532 1534 1536 1538 1540 1541 1543 1544
1441 1436 1433 1426 1432 1445 1459 1458 1464 1460 1458 1447 1449 1456 1466 1466 1467 1471 1477 1481 1485 1488 1492 1495 1497 1499 1502 1505 1508 1511 1514 1517 1520 1522 1525 1527 1529 1531 1533 1534 1535 1537 1538 1540
1442 1441 1434 1443 1446 1449 1449 1452 1459 1459 1447 1445 1442 1446 1450 1454 1459 1468 1472 1478 1483 1486 1489 1492 1495 1498 1501 1505 1508 1511 1513 1516 1518 1521 1523 1525 1527 1528 1530 1531 1532 1533 1534 1536
1443 1440 1446 1448 1454 1459 1454 1453 1454 1456 1451 1457 1462 1452 1451 1453 1461 1468 1471 1476 1481 1484 1488 1492 1495 1498 1501 1504 1507 1510 1512 1515 1517 1519 1521 1523 1524 1526 1527 1528 1529 1529 1530 1531
1443 1444 1447 1431 1454 1458 1452 1448 1446 1445 1444 1442 1452 1438 1449 1456 1457 1462 1468 1474 1478 1483 1487 1491 1494 1497 1500 1503 1506 1509 1511 1513 1515 1517 1519 1520 1521 1522 1523 1524 1524 1525 1526 1526
1442 1444 1447 1440 1458 1443 1428 1441 1439 1434 1437 1440 1442 1444 1446 1450 1456 1462 1468 1472 1477 1481 1485 1489 1493 1497 1500 1502 1505 1507 1509 1511 1513 1514 1516 1517 1518 1518 1519 1519 1520 1520 1520 1520
1441 1439 1447 1442 1439 1417 1424 1437 1438 1434 1424 1429 1435 1444 1448 1453 1459 1466 1468 1472 1476 1480 1483 1488 1492 1495 1498 1500 1503 1505 1507 1508 1509 1510 1511 1512 1512 1513 1513 1513 1514 1514 1514 1514
1443 1441 1438 1450 1431 1417 1419 1429 1432 1433 1421 1427 1431 1438 1445 1451 1452 1455 1464 1469 1474 1479 1483 1487 1491 1494 1496 1499 1500 1502 1504 1505 1506 1507 1507 1508 1508 1508 1508 1508 1508 1508 1508 1507
1439 1439 1436 1433 1429 1416 1427 1431 1433 1423 1424 1432 1434 1439 1445 1448 1452 1453 1461 1468 1474 1478 1483 1486 1489 1492 1494 1496 1498 1499 1501 1501 1502 1503 1503 1504 1503 1503 1503 1503 1503 1503 1502 1501
1427 1428 1432 1427 1434 1429 1431 1434 1430 1437 1436 1437 1438 1442 1447 1450 1454 1457 1463 1469 1473 1478 1482 1485 1488 1490 1492 1494 1495 1496 1497 1498 1498 1499 1499 1499 1499 1499 1498 1498 1498 1497 1496 1495
1428 1422 1420 1422 1422 1435 1436 1437 1438 1438 1439 1441 1442 1445 1448 1451 1456 1460 1464 1469 1474 1477 1481 1484 1486 1488 1490 1491 1493 1493 1494 1495 1495 1495 1495 1494 1494 1494 1493 1493 1492 1492 1492 1490
1427 1430 1424 1427 1435 1437 1439 1440 1441 1441 1442 1443 1446 1448 1451 1454 1459 1462 1466 1470 1474 1477 1480 1483 1485 1486 1488 1489 1490 1490 1491 1491 1491 1491 1491 1490 1490 1489 1488 1487 1486 1486 1485 1484
1429 1430 1426 1428 1439 1440 1442 1443 1444 1444 1446 1447 1450 1453 1456 1458 1461 1464 1467 1471 1474 1477 1480 1482 1483 1484 1485 1486 1487 1487 1487 1487 1487 1487 1486 1486 1485 1484 1483 1482 1481 1480 1480 1480
1440 1439 1429 1426 1443 1442 1444 1446 1447 1448 1449 1451 1452 1455 1458 1461 1463 1466 1468 1471 1474 1476 1478 1480 1481 1482 1483 1484 1484 1484 1484 1484 1484 1483 1482 1481 1480 1479 1478 1477 1475 1475 1474 1474
Wind_Speed
12 8 15 18 18 16 7 8 10 3 3 6 14 10 11 10 10 13 14 16 18 18 19 21 23 23 22 22 21 19 18 16 13 12 11 10 10 10 10 10 10 10 11 12
6 16 13 11 14 11 9 9 10 3 4 6 6 13 12 11 12 10 12 14 16 17 20 22 23 24 24 24 23 20 19 16 14 12 11 11 10 10 11 11 11 11 12 12
15 3 7 10 8 11 14 14 11 6 5 4 4 9 14 6 8 7 6 7 12 18 21 22 24 25 24 25 25 23 21 18 15 13 12 11 10 10 10 11 11 12 12 13
12 7 7 10 15 14 12 8 8 7 7 5 4 6 15 14 10 9 9 9 11 15 19 21 24 24 24 24 24 23 22 20 17 14 12 9 8 9 10 11 12 12 13 13
6 7 9 8 4 12 4 4 7 8 8 2 6 2 5 7 11 11 9 6 7 11 18 22 23 23 22 23 24 24 22 22 19 15 13 10 8 9 9 11 12 13 13 14
1 2 1 1 5 1 13 9 6 3 3 4 8 9 8 8 9 14 8 5 4 6 14 20 20 21 21 22 22 23 24 23 21 18 15 11 9 9 10 10 12 13 13 14
3 4 2 3 7 6 4 7 3 4 4 7 3 5 13 6 3 7 9 7 6 8 13 18 19 21 21 21 22 23 23 23 22 19 17 13 10 9 9 10 11 12 13 14
10 6 10 8 1 5 9 4 4 6 6 4 4 7 3 6 7 8 9 9 10 11 13 15 16 18 19 19 21 21 22 22 22 20 18 16 13 11 11 11 12 12 12 13
9 8 3 2 1 1 6 7 3 4 1 2 6 5 4 8 9 10 12 12 13 13 14 14 15 15 16 17 19 19 21 20 21 21 20 18 15 13 12 13 14 13 13 14
4 3 0 3 1 1 2 1 4 2 5 7 9 5 5 13 14 13 13 15 14 14 15 15 15 16 15 16 18 18 18 18 19 20 19 18 16 14 13 13 14 14 14 14
3 1 4 4 9 8 4 3 3 1 2 4 4 4 3 10 15 16 16 17 16 15 15 15 15 16 16 16 17 17 17 17 17 18 18 17 16 15 15 15 14 15 16 16
3 3 5 3 2 1 2 3 6 4 6 2 2 2 2 5 9 17 19 18 16 15 15 15 16 17 17 17 16 16 15 15 15 15 15 15 15 15 15 14 14 15 16 17
7 5 4 3 2 2 5 5 2 2 1 7 4 3 2 3 9 19 21 18 17 16 15 15 15 15 16 16 16 15 14 13 12 12 12 12 12 13 13 14 15 15 16 17
5 2 3 6 3 5 6 8 7 3 4 6 6 3 6 10 12 17 20 20 18 17 16 15 15 15 16 16 14 13 12 11 10 10 9 9 10 10 11 12 13 14 15 15
2 4 4 3 4 1 1 5 12 12 12 8 4 10 10 17 16 19 23 23 20 18 20 19 18 16 16 14 13 12 11 10 10 9 9 9 9 10 11 11 12 13 14 16
3 1 1 3 2 2 4 4 10 11 6 6 2 5 1 12 21 16 21 21 18 19 19 19 17 16 16 14 13 12 10 9 8 7 6 7 8 10 11 13 15 16 17 18
4 5 4 4 3 3 7 10 13 7 6 10 10 8 9 6 14 22 22 20 22 21 21 20 18 17 15 13 12 10 8 7 6 5 4 4 5 8 10 13 15 17 19 20
5 3 2 3 2 7 1 1 1 11 3 9 2 4 4 10 14 19 19 20 21 23 21 19 17 15 14 12 10 8 7 7 5 5 6 7 8 10 11 12 14 17 21 23
1 4 4 4 6 7 2 5 6 7 6 17 9 9 15 16 13 6 16 19 20 21 21 19 16 15 13 11 9 7 6 5 6 7 9 11 13 14 15 16 17 17 19 20
1 1 3 3 4 5 2 3 3 1 3 2 12 14 17 19 9 6 21 22 21 20 19 17 14 12 10 8 6 5 6 7 9 11 14 16 16 16 17 18 19 19 20 20
4 3 8 7 5 4 4 7 5 4 1 4 11 18 20 6 3 23 25 23 22 19 17 14 12 10 8 7 6 7 8 10 12 14 15 16 18 19 20 20 21 21 21 21
7 8 5 6 5 8 6 6 4 3 5 7 11 17 16 17 19 24 25 23 20 17 14 11 9 7 6 6 7 9 10 12 14 15 16 17 18 19 20 21 21 21 22 23
3 2 2 5 1 4 7 8 4 3 6 8 13 14 18 18 19 21 23 20 17 14 11 9 8 7 6 7 8 9 10 12 12 13 14 15 15 16 16 18 20 21 22 24
3 2 1 2 4 5 6 8 8 7 10 10 13 15 15 20 17 19 18 16 13 11 9 7 6 5 6 7 8 9 9 10 11 12 13 14 15 16 17 18 19 21 22 24
3 3 2 2 4 5 4 7 7 12 14 15 14 13 14 17 15 15 14 12 10 8 7 6 5 5 6 7 7 8 9 10 10 11 12 13 14 15 16 17 18 20 22 22
6 4 2 2 5 4 7 6 8 11 12 12 14 15 14 12 13 12 11 9 7 6 5 4 4 4 5 6 7 8 9 10 12 12 13 14 16 16 17 18 21 19 18 19
Wind_Direction
196 207 208 209 214 239 306 259 254 158 136 211 226 243 210 174 182 194 190 188 191 193 193 186 186 187 183 184 181 190 192 194 196 193 193 193 194 194 194 193 184 178 174 167
190 230 222 224 240 228 238 240 239 85 164 220 221 244 233 194 210 215 205 196 193 188 185 184 186 188 187 186 185 191 196 198 196 194 191 191 199 196 200 196 193 186 181 178
217 246 236 184 194 206 229 230 231 245 166 234 287 256 218 201 209 201 218 219 201 197 190 188 189 190 189 189 187 193 198 199 198 199 197 198 203 206 205 203 200 196 194 191
233 193 166 201 217 206 226 222 252 177 189 237 201 268 218 188 197 204 192 198 206 206 201 196 193 191 193 191 189 191 198 201 200 203 199 198 203 210 213 210 209 205 204 202
184 190 187 194 211 195 212 136 203 207 230 307 187 234 226 161 208 199 183 189 199 206 204 196 194 192 191 190 188 188 197 202 203 200 200 195 190 200 210 213 215 213 213 212
67 70 294 97 89 308 137 117 103 114 179 240 220 212 232 189 220 181 169 166 173 185 189 189 188 185 183 182 183 184 197 202 204 202 201 201 205 218 217 220 221 221 221 220
141 185 156 166 111 135 184 162 145 201 201 238 146 209 238 121 81 156 158 144 131 138 155 169 173 174 176 179 183 187 195 200 204 204 205 207 213 221 219 222 224 227 229 228
199 217 178 167 228 176 186 204 191 219 208 206 136 226 207 118 128 132 138 133 128 129 143 159 166 168 174 177 183 188 194 199 204 206 209 212 217 223 222 226 225 229 232 233
209 207 107 47 64 276 171 217 45 86 38 280 190 224 174 162 160 154 144 139 130 128 133 138 145 153 161 170 179 185 192 198 204 208 211 215 220 224 227 228 228 229 233 238
201 121 315 100 161 77 265 79 156 205 207 233 209 235 218 192 178 166 161 149 139 134 130 127 129 134 140 156 169 176 184 192 200 206 212 218 225 228 231 236 240 240 242 244
131 201 126 160 206 181 153 194 219 307 259 242 241 218 6 182 174 169 164 157 148 143 137 131 130 135 141 148 158 167 174 183 192 201 210 219 225 228 231 236 240 242 241 246
171 106 162 187 75 17 314 213 190 206 190 231 339 263 26 14 148 161 152 150 148 144 138 134 134 135 138 145 153 162 170 180 190 201 210 217 225 230 236 241 244 245 246 248
191 190 146 188 179 172 218 184 171 103 353 197 199 193 90 144 121 143 147 157 154 148 142 139 136 138 141 145 152 161 168 175 184 193 203 212 220 226 231 237 240 243 245 248
165 203 229 232 100 114 189 187 186 172 196 189 219 169 201 183 173 169 168 161 157 153 150 146 142 143 150 156 160 163 169 174 179 186 195 207 217 226 234 240 242 244 246 251
220 221 204 92 81 67 215 180 181 198 215 213 203 200 195 192 182 170 161 161 158 160 162 159 157 156 155 156 159 164 173 180 188 197 208 217 224 232 238 241 243 244 246 253
175 205 101 203 112 32 281 207 197 227 239 276 236 264 50 129 147 153 162 165 165 166 164 161 157 153 152 153 153 155 160 166 175 190 209 228 240 246 251 255 256 260 258 259
169 154 157 253 59 335 271 205 199 189 201 213 203 215 153 166 167 171 167 171 172 170 166 163 161 158 156 156 160 166 173 180 188 196 211 239 258 265 267 267 267 267 265 266
145 158 94 247 174 247 322 41 290 225 201 202 172 145 144 140 129 152 176 169 173 174 170 167 168 165 166 170 176 183 189 196 208 237 258 266 270 274 277 278 276 272 267 264
309 168 176 202 204 307 218 201 175 173 262 198 178 146 129 130 122 129 161 184 171 171 175 175 173 174 178 185 192 199 211 232 261 274 277 281 287 291 293 294 291 288 283 277
112 329 232 161 224 233 53 143 142 155 268 213 159 155 153 153 178 161 178 182 180 172 172 175 177 181 188 195 207 226 252 266 272 276 278 281 283 284 287 290 292 292 290 286
167 189 213 209 243 283 88 133 148 188 295 150 161 152 158 161 48 153 165 161 165 166 170 175 180 186 196 211 231 246 260 273 281 281 279 279 280 282 284 286 289 291 291 288
174 167 193 198 222 249 135 125 214 32 57 140 142 150 140 127 130 142 152 156 160 166 169 175 183 196 214 234 250 263 270 274 274 274 275 276 278 279 280 282 284 286 289 289
213 253 183 213 179 80 50 66 61 28 119 119 127 147 154 134 139 149 152 158 161 165 170 178 192 209 231 252 264 269 270 269 270 274 279 282 282 283 282 282 283 283 282 282
203 188 244 194 125 91 85 69 63 79 103 112 131 138 144 135 144 150 155 157 160 163 170 181 204 228 247 259 265 268 270 276 280 281 282 284 287 287 285 284 284 284 282 281
30 166 183 121 98 118 89 80 92 95 102 106 113 127 134 142 142 153 154 157 163 170 178 193 212 237 254 265 273 279 285 288 290 292 294 297 296 295 292 289 285 283 278 275
1 12 286 58 21 17 85 101 111 110 105 113 126 125 130 146 146 153 156 162 166 174 187 205 228 250 266 277 283 288 292 295 297 300 302 302 299 298 296 292 289 283 282 279